Home   Weather   Altdorf   Past weeks

Flag for Switzerland Past Weather in Altdorf, Uri, Switzerland — Yesterday and Last 2 Weeks

Now
54 °F

Cool.


Feels Like: 54 °F
Forecast: 34 / 60 °F
Wind: 5 mph from North

Location: Altdorf

Current Time: Apr 23, 2017 at 4:12:17 pm

Latest Report: Apr 23, 2017 at 3:00 pm


Visibility: N/A

Pressure: 30.17 "Hg

Humidity: 53%

Dew Point: 38 °F

Location of AltdorfLocation

Past Weather in Altdorf — Graph

°F

Altdorf Temperature Yesterday

Maximum temperature yesterday: 61 °F (at 3:00 pm)
Minimum temperature yesterday: 33 °F (at 5:00 am)
Average temperature yesterday: 48 °F

High & Low Weather Summary for the Past Weeks

 TemperatureHumidityPressure
High73 °F (Apr 10, 3:00 pm)97% (Apr 15, 10:00 pm)30.57 "Hg (Apr 15, 10:00 pm)
Low27 °F (Apr 21, 7:00 am)29% (Apr 21, 3:00 pm)29.90 "Hg (Apr 13, 5:00 pm)
Average48 °F70%30.20 "Hg
* Reported Apr 8 1:00 pm — Apr 23 1:00 pm, Altdorf, Weather by CustomWeather, © 2017

Note: Actual official high and low records may vary slightly from our data, if they occured in-between our weather recording intervals... More about our weather records

Advertising

Altdorf Weather History for the Previous 24 Hours

Scroll right to see more
 ConditionsComfort  
Time TempWeatherWind HumidityBarometerVisibility
1:00 pm
Sun, Apr 23
50 °FCool.3 mph61%30.22 "HgN/A
12:00 pm49 °FCool.2 mph61%30.23 "HgN/A
11:00 am48 °FOvercast.5 mph61%30.23 "Hg9 mi
10:00 am47 °FCool.7 mph61%30.23 "HgN/A
9:00 am47 °FCool.8 mph68%30.22 "HgN/A
8:00 am46 °FOvercast.12 mph72%30.22 "Hg9 mi
7:00 am47 °FCool.16 mph72%30.19 "HgN/A
6:00 am49 °FCool.15 mph69%30.17 "HgN/A
5:00 am49 °FCool.10 mph67%30.17 "HgN/A
4:00 am50 °FCool.10 mph63%30.17 "HgN/A
3:00 am50 °FCool.10 mph62%30.18 "HgN/A
2:00 am51 °FOvercast.9 mph60%30.19 "Hg9 mi
1:00 am51 °FCool.8 mph62%30.20 "HgN/A
12:00 am51 °FCool.9 mph61%30.20 "HgN/A
11:00 pm
Sat, Apr 22
52 °FOvercast.10 mph57%30.19 "Hg9 mi
10:00 pm53 °FCool.12 mph54%30.19 "HgN/A
9:00 pm54 °FCool.12 mph52%30.17 "HgN/A
8:00 pm55 °FOvercast.15 mph49%30.14 "Hg9 mi
7:00 pm56 °FRefreshingly cool.17 mph50%30.13 "HgN/A
6:00 pm58 °FRefreshingly cool.14 mph47%30.11 "HgN/A
5:00 pm59 °FPassing clouds.9 mph41%30.12 "Hg16 mi
4:00 pm60 °FRefreshingly cool.13 mph41%30.14 "HgN/A
Weather by CustomWeather, © 2017

See weather overviewHow to use our weather pages